Content
SEND FEEDBACK

Daily
Averages
Monthly
Summary
United States of America

MAURICEVILLE, TEXAS


Home > North America > United States > Texas
Elevation: 20 feet     Latitude: 30 14N     Longitude: 093 44W

WEATHER
 
SELECT A DAY
Number of Records: 107,977;   Date Range: 8/25/05 - 7/21/14
 
SHARE

PRINT THIS DATA

[ ← Previous Day ]
WEATHER ALMANAC - FEBRUARY 28, 2013
[ Next Day → ]
[ °C ]   °F
Weather ElementAverageHighLow
Temperature46.1 °F53.6 °F (3:35 pm)39.2 °F (6:15 am)
Dewpoint32.8 °F37.4 °F (8:55 pm)30.2 °F (3:15 pm)
Humidity60.7 %76 % (10:55 pm)41 % (4:15 pm)
Barometer30.20 in30.27 in (8:35 am)30.14 in (4:15 pm)
Wind Speed5.7 mph12.7 mph (11:15 am)
Wind Gust20.7 mph (4:15 pm)
Weather ElementAverage
Visibility10 mi
Wind DirectionWSW (250.7 °)

Weather ElementTotal
Precipitation---
Heating Degree Days18.6 (Base 65)
Averaged from 69 records on February 28, 2013
WEATHER CONDITIONS BREAKOUT
WIND DIRECTION BREAKOUT
WEATHER BY HOUR - FEBRUARY 28, 2013
[ °C ]   °F
Local TimeTemperatureDewpointHumidityBarometerVisibilityWind DirectionWind SpeedGust SpeedPrecipitationEventsConditions
12:55 AM46.4 °F32.0 °F57 %30.15 in10.0 miWNW (300°)3.5 mphClear
1:15 AM46.4 °F32.0 °F57 %30.16 in10.0 miWNW (300°)3.5 mphClear
1:35 AM44.6 °F32.0 °F61 %30.16 in10.0 miCalmClear
1:55 AM42.8 °F32.0 °F66 %30.17 in10.0 miCalmClear
2:15 AM42.8 °F32.0 °F66 %30.17 in10.0 miCalmClear
2:35 AM42.8 °F32.0 °F66 %30.17 in10.0 miWNW (300°)5.8 mphClear
2:55 AM42.8 °F32.0 °F66 %30.16 in10.0 miNW (310°)5.8 mphClear
3:15 AM42.8 °F32.0 °F66 %30.16 in10.0 miNW (320°)6.9 mphClear
3:35 AM42.8 °F32.0 °F66 %30.16 in10.0 miNW (310°)5.8 mphClear
3:55 AM42.8 °F32.0 °F66 %30.16 in10.0 miNW (310°)5.8 mphClear
4:15 AM42.8 °F32.0 °F66 %30.17 in10.0 miNW (310°)6.9 mphClear
4:35 AM41.0 °F32.0 °F70 %30.17 in10.0 miNW (310°)5.8 mphClear
4:55 AM41.0 °F32.0 °F70 %30.18 in10.0 miWNW (300°)4.6 mphClear
5:15 AM41.0 °F32.0 °F70 %30.18 in10.0 miNW (310°)6.9 mphClear
5:35 AM41.0 °F32.0 °F70 %30.19 in10.0 miNW (310°)5.8 mphClear
5:55 AM41.0 °F32.0 °F70 %30.21 in10.0 miNW (310°)4.6 mphClear
6:15 AM39.2 °F32.0 °F75 %30.21 in10.0 miNW (310°)5.8 mphClear
6:35 AM39.2 °F32.0 °F75 %30.22 in10.0 miWNW (300°)4.6 mphClear
6:55 AM39.2 °F32.0 °F75 %30.22 in10.0 miWNW (300°)4.6 mphClear
7:15 AM39.2 °F32.0 °F75 %30.24 in10.0 miWNW (290°)3.5 mphClear
7:35 AM41.0 °F32.0 °F70 %30.25 in10.0 miWNW (290°)5.8 mphClear
7:55 AM41.0 °F32.0 °F70 %30.26 in10.0 miWNW (300°)4.6 mphClear
8:15 AM42.8 °F32.0 °F66 %30.26 in10.0 miNW (310°)5.8 mphClear
8:35 AM42.8 °F32.0 °F66 %30.27 in10.0 miNNW (340°)5.8 mphClear
8:55 AM42.8 °F32.0 °F66 %30.27 in10.0 miNNW (340°)11.5 mph18.4 mphClear
9:15 AM42.8 °F32.0 °F66 %30.26 in10.0 miNNW (330°)11.5 mphClear
9:35 AM44.6 °F32.0 °F61 %30.27 in10.0 miNW (320°)9.2 mphClear
9:55 AM44.6 °F32.0 °F61 %30.26 in10.0 miNNW (330°)9.2 mphClear
10:15 AM46.4 °F32.0 °F57 %30.26 in10.0 miNNW (330°)8.1 mphClear
10:35 AM46.4 °F32.0 °F57 %30.26 in10.0 miNNW (340°)8.1 mphClear
10:55 AM46.4 °F32.0 °F57 %30.26 in10.0 miNNW (340°)10.4 mphClear
11:15 AM48.2 °F32.0 °F54 %30.26 in10.0 miNNW (330°)12.7 mph17.3 mphClear
11:35 AM50.0 °F32.0 °F50 %30.25 in10.0 miNW (310°)10.4 mphClear
11:55 AM50.0 °F32.0 °F50 %30.24 in10.0 miNorth (350°)11.5 mph18.4 mphClear
12:15 PM50.0 °F32.0 °F50 %30.23 in10.0 miNorth (350°)11.5 mph17.3 mphClear
12:55 PM50.0 °F32.0 °F50 %30.21 in10.0 miNNW (330°)11.5 mph17.3 mphClear
1:15 PM50.0 °F32.0 °F50 %30.20 in10.0 miNorth (350°)12.7 mph17.3 mphClear
1:35 PM50.0 °F32.0 °F50 %30.19 in10.0 miNorth (350°)12.7 mph16.1 mphClear
1:55 PM50.0 °F32.0 °F50 %30.18 in10.0 miNNW (340°)9.2 mph17.3 mphClear
2:15 PM51.8 °F32.0 °F47 %30.17 in10.0 miNNW (330°)8.1 mphClear
2:35 PM51.8 °F32.0 °F47 %30.16 in10.0 miNNW (340°)8.1 mphClear
2:55 PM51.8 °F32.0 °F47 %30.16 in10.0 miNorth (350°)9.2 mphClear
3:15 PM51.8 °F30.2 °F44 %30.16 in10.0 miNorth (350°)11.5 mph17.3 mphClear
3:35 PM53.6 °F32.0 °F44 %30.15 in10.0 miNW (320°)6.9 mphClear
3:55 PM53.6 °F32.0 °F44 %30.15 in10.0 miNW (310°)8.1 mphClear
4:15 PM53.6 °F30.2 °F41 %30.14 in10.0 miNNW (340°)11.5 mph20.7 mphClear
4:35 PM53.6 °F30.2 °F41 %30.15 in10.0 miNW (320°)8.1 mph18.4 mphClear
4:55 PM51.8 °F32.0 °F47 %30.14 in10.0 miNW (310°)6.9 mphClear
5:15 PM51.8 °F32.0 °F47 %30.15 in10.0 miNW (310°)5.8 mphClear
5:35 PM53.6 °F32.0 °F44 %30.15 in10.0 miWNW (290°)5.8 mphClear
5:55 PM51.8 °F32.0 °F47 %30.15 in10.0 miCalmClear
6:15 PM50.0 °F33.8 °F54 %30.16 in10.0 miCalmClear
6:35 PM50.0 °F33.8 °F54 %30.16 in10.0 miCalmClear
6:55 PM48.2 °F35.6 °F62 %30.17 in10.0 miCalmClear
7:15 PM46.4 °F35.6 °F66 %30.18 in10.0 miCalmClear
7:35 PM48.2 °F35.6 °F62 %30.18 in10.0 miCalmClear
7:55 PM46.4 °F35.6 °F66 %30.18 in10.0 miCalmClear
8:15 PM46.4 °F35.6 °F66 %30.19 in10.0 miCalmClear
8:35 PM48.2 °F35.6 °F62 %30.19 in10.0 miCalmClear
8:55 PM46.4 °F37.4 °F71 %30.20 in10.0 miWest (280°)3.5 mphClear
9:15 PM46.4 °F37.4 °F71 %30.21 in10.0 miWest (280°)3.5 mphClear
9:35 PM44.6 °F35.6 °F71 %30.21 in10.0 miWest (280°)3.5 mphClear
9:55 PM44.6 °F35.6 °F71 %30.21 in10.0 miWest (280°)3.5 mphClear
10:15 PM44.6 °F35.6 °F71 %30.21 in10.0 miWest (280°)3.5 mphClear
10:35 PM44.6 °F35.6 °F71 %30.21 in10.0 miCalmClear
10:55 PM42.8 °F35.6 °F76 %30.21 in10.0 miCalmClear
11:15 PM44.6 °F35.6 °F71 %30.21 in10.0 miWest (280°)4.6 mphClear
11:35 PM44.6 °F33.8 °F66 %30.21 in10.0 miWest (280°)4.6 mphClear
11:55 PM44.6 °F33.8 °F66 %30.21 in10.0 miWNW (290°)4.6 mphClear
Hourly data recorded from KORG, located miles away from Mauriceville, Texas







STORIES FROM OUR PARTNERS